Theta_e
331 330 329 328 327 324 321 320 323 323 324 325 325 325 326 327 328 328 326 319 325 330 333 334 335 335 335 334 334 332 330 328 326 326 327 325 322 320 319 319 318 317 316
331 329 328 326 324 322 320 320 323 323 323 324 324 326 326 327 328 327 327 327 323 327 330 333 334 332 333 333 333 332 330 328 326 327 325 323 321 319 318 317 316 315 313
330 328 327 325 322 321 321 323 326 325 324 324 326 326 327 327 327 327 328 327 325 320 324 328 330 333 332 331 332 332 330 328 328 326 323 321 319 318 316 315 313 312 311
329 328 326 324 322 320 322 325 325 324 324 324 324 325 325 326 326 327 328 327 326 325 320 320 324 328 331 330 329 331 330 329 327 325 322 320 318 316 315 313 311 310 310
328 327 325 323 321 320 323 325 325 324 322 323 323 324 324 324 325 325 325 325 323 324 321 314 315 318 325 329 330 330 329 328 325 322 320 318 316 315 312 311 310 309 308
326 326 324 322 321 320 323 325 325 325 324 323 320 321 323 325 326 321 320 321 321 320 319 319 320 316 317 323 327 328 327 325 322 320 318 316 314 312 310 309 308 307 306
326 326 325 322 321 320 323 325 325 324 324 323 321 321 317 318 317 317 318 317 314 315 316 317 317 315 312 315 320 323 323 322 319 317 315 313 312 310 308 307 306 305 305
326 326 326 324 323 320 324 324 324 323 324 322 318 318 313 313 315 316 315 312 309 307 307 308 308 306 306 308 311 314 317 317 315 314 312 310 309 307 306 305 304 304 304
328 326 327 326 326 325 323 324 324 323 321 322 322 318 314 312 313 312 310 307 304 303 302 302 301 301 302 303 305 305 306 308 309 308 307 306 305 304 303 302 302 302 302
326 327 327 327 326 327 325 326 326 325 324 320 320 322 324 322 315 307 306 303 302 300 299 298 297 298 299 300 300 300 301 301 301 301 301 301 301 301 300 300 301 301 301
328 328 328 328 327 327 327 327 327 326 325 323 321 322 322 323 323 319 307 300 298 297 296 296 295 295 296 297 299 298 298 298 297 297 296 296 296 296 297 298 299 299 299
326 327 328 328 327 327 326 326 326 324 323 323 323 324 322 319 319 317 312 301 300 294 294 294 293 293 293 294 293 294 296 296 294 293 293 293 293 294 295 297 297 298 298
326 326 327 327 326 326 327 327 325 323 323 322 321 321 325 324 323 322 314 301 296 292 291 292 291 291 292 292 290 289 290 291 291 291 291 291 292 292 293 294 295 295 296
324 327 326 326 326 326 325 326 326 323 323 321 319 315 311 309 312 312 311 302 296 293 291 290 290 291 290 289 287 286 288 288 289 289 290 290 291 291 291 292 293 294 294
309 308 309 310 309 310 313 313 308 303 305 303 301 301 299 298 300 301 305 307 305 296 293 290 289 291 289 288 287 287 287 285 286 287 288 288 290 290 291 291 291 292 293
301 301 302 301 300 300 302 301 299 298 296 296 296 295 294 294 295 296 299 302 304 306 295 291 289 288 287 287 286 286 287 283 283 284 286 287 289 289 289 290 290 290 291
297 297 297 297 297 297 296 295 295 294 293 292 292 291 290 291 291 293 296 299 298 300 292 285 287 287 286 287 286 286 286 286 286 282 284 287 287 287 288 288 288 288 289
293 294 293 293 293 294 293 292 290 290 290 288 288 287 286 288 287 288 290 290 292 294 294 287 285 285 286 285 286 284 284 283 284 283 284 286 286 286 286 287 287 287 286
290 291 290 290 289 289 289 289 288 287 286 286 285 285 285 285 284 285 286 286 287 288 290 289 284 285 283 283 283 283 283 284 283 281 283 284 284 284 285 286 285 285 284
289 288 288 288 288 287 287 287 286 286 285 284 284 283 283 283 283 283 283 284 286 286 286 284 283 282 283 281 282 282 282 282 281 281 281 281 282 282 283 285 284 282 283
287 287 287 287 287 287 286 285 285 285 284 284 285 285 285 285 285 284 284 284 284 284 283 283 281 281 281 280 280 280 279 280 282 281 280 281 281 282 282 282 281 281 284
286 286 286 286 285 285 287 286 285 283 283 283 281 282 283 284 285 285 285 285 284 283 282 282 281 280 279 279 279 278 278 277 279 281 278 279 281 280 281 281 282 282 283
284 284 284 284 284 285 285 285 283 281 280 280 280 280 279 280 281 281 282 282 281 282 282 281 280 279 278 278 277 277 276 276 276 278 275 277 279 278 281 279 281 282 283
283 283 283 284 284 284 284 283 283 281 281 280 280 280 280 280 280 280 280 279 279 280 279 278 279 278 278 278 277 277 275 275 276 277 275 274 278 277 280 280 281 280 281
282 282 283 283 283 283 284 283 282 281 280 279 280 281 281 281 281 281 280 278 278 277 278 279 279 279 279 279 278 277 277 275 275 276 274 274 277 274 277 278 278 278 280
280 281 281 282 283 283 284 283 282 281 280 280 280 281 281 282 281 280 279 279 278 276 276 277 277 277 276 276 276 277 276 274 275 274 274 273 275 273 274 279 278 278 277
Wind_Speed
9 9 8 8 8 7 7 6 6 6 6 6 5 5 5 5 5 3 4 4 5 8 10 8 8 8 9 9 13 13 13 11 9 8 11 10 8 8 6 7 8 9 9
9 9 9 8 8 7 6 6 6 6 6 6 6 5 6 5 6 5 3 5 9 11 10 13 11 3 6 8 13 14 15 15 12 12 10 9 8 6 7 8 8 8 7
11 11 8 8 8 7 8 7 6 5 6 6 6 6 5 6 5 6 5 4 7 11 13 14 12 12 5 2 10 13 14 13 13 12 11 8 7 7 7 7 6 5 5
13 11 9 9 9 7 7 7 6 6 6 6 6 5 5 5 6 6 5 4 4 4 9 12 12 14 12 6 2 10 12 13 13 12 9 9 7 5 6 5 4 4 6
13 10 9 9 10 8 8 7 7 7 7 7 4 4 4 5 5 5 6 5 5 5 5 9 14 13 11 10 6 6 7 11 11 11 10 8 7 7 4 4 5 6 6
13 11 9 10 10 9 9 8 9 8 7 6 5 4 3 3 4 5 6 4 4 5 4 3 3 7 12 13 8 11 12 13 11 9 10 8 6 4 4 4 5 6 6
13 13 9 10 11 11 11 11 10 10 7 6 6 4 2 2 3 3 4 4 5 4 4 3 3 3 4 12 13 8 9 10 10 9 7 7 6 5 4 5 4 4 6
14 13 12 11 12 10 12 12 12 9 8 7 7 7 5 2 2 4 4 4 5 3 3 4 4 4 4 4 8 12 12 10 9 8 7 6 5 5 3 4 4 5 6
13 14 14 12 12 11 10 11 12 13 9 8 8 6 4 6 6 3 3 3 4 3 3 3 4 4 4 4 5 8 9 10 10 8 6 5 5 5 4 4 4 5 6
16 15 15 14 13 9 11 11 11 12 9 8 4 5 6 1 5 4 2 3 3 3 3 2 3 4 4 5 7 7 7 7 7 6 6 5 5 4 3 4 5 6 7
14 15 15 14 13 10 11 12 12 11 9 8 7 5 9 6 5 4 4 3 1 2 3 2 2 2 3 3 3 4 6 6 6 5 4 3 3 3 4 5 5 6 7
10 15 15 13 13 12 11 11 11 12 11 11 8 9 6 6 8 5 3 3 3 3 2 3 3 2 2 2 4 6 4 5 3 3 2 2 3 4 5 7 7 8 8
9 13 15 13 11 12 11 11 11 12 12 10 11 8 8 7 3 6 3 2 3 2 2 2 3 2 3 3 3 3 3 2 2 0 2 3 3 3 4 6 7 7 8
9 11 12 11 12 10 10 10 8 9 10 10 8 5 2 1 2 1 4 5 3 3 3 3 2 3 2 3 3 4 3 1 1 2 4 4 4 4 6 7 7 7 9
4 5 4 6 5 3 4 4 3 4 2 3 6 7 4 3 3 2 1 2 3 4 4 4 3 4 4 4 3 4 3 2 2 4 6 7 6 7 7 9 7 8 10
9 7 8 6 9 8 5 7 5 6 9 6 5 6 7 4 3 4 2 3 2 2 4 1 1 4 5 4 4 4 3 2 3 5 7 7 7 7 9 9 8 8 10
9 10 7 9 8 9 10 6 10 8 10 9 7 7 8 6 3 3 2 3 5 2 4 2 2 4 5 5 4 3 2 3 3 4 7 7 7 9 9 9 8 9 12
10 9 9 10 10 9 9 7 10 10 10 9 8 9 9 5 6 4 4 7 5 4 2 6 3 3 2 2 1 3 3 3 4 4 8 9 9 10 9 9 8 9 12
12 11 12 9 11 10 10 8 12 10 10 10 9 9 8 5 3 3 5 5 4 2 3 4 4 2 2 1 2 2 3 4 3 5 8 10 11 10 10 9 8 8 12
11 10 11 13 11 9 9 8 11 11 11 10 9 8 6 5 4 5 6 6 5 5 6 6 4 3 1 2 1 2 3 3 5 3 6 8 11 10 10 9 8 9 12
10 9 10 10 9 8 6 8 11 10 11 11 10 9 9 9 12 10 5 6 6 5 4 5 3 2 2 1 1 1 3 5 4 2 5 6 5 6 4 8 8 10 14
10 10 11 10 10 7 15 14 11 9 9 10 8 7 7 8 13 17 18 18 12 6 5 3 2 1 2 1 0 2 3 3 3 2 6 7 5 5 5 5 8 13 14
10 10 10 10 10 10 15 15 15 8 8 7 8 6 6 5 6 8 13 15 16 17 13 3 2 2 1 2 2 2 2 3 4 3 5 7 1 6 5 6 13 14 11
9 9 10 10 10 10 15 15 14 10 9 9 7 7 6 6 7 6 7 8 8 9 8 5 5 3 3 1 2 2 3 5 6 4 2 4 2 5 6 8 12 9 9
9 9 8 9 10 9 13 11 10 8 8 8 6 6 5 6 7 6 4 5 5 5 6 7 6 3 2 1 2 2 3 4 3 2 3 3 2 5 7 7 4 6 12
8 6 9 8 8 8 11 10 7 4 7 5 5 5 7 6 7 7 4 3 2 2 2 3 3 3 3 4 5 5 3 5 4 5 3 3 4 3 5 3 3 6 8
Wind_Direction
172 171 173 178 185 185 188 189 186 184 187 190 190 194 184 177 165 165 115 32 20 56 41 52 73 136 143 152 149 139 136 128 135 130 121 112 98 82 71 71 59 46 37
177 176 174 178 187 191 189 194 192 190 193 193 197 192 190 185 179 132 125 102 58 45 53 51 42 78 152 164 163 156 153 154 157 144 128 122 111 96 94 73 59 47 36
182 183 181 178 184 189 194 194 195 198 195 193 192 190 192 185 176 164 166 150 117 62 49 50 37 46 76 187 186 173 170 160 153 143 140 130 117 111 97 86 65 48 27
186 189 187 183 179 184 193 198 196 199 202 191 193 196 203 193 196 178 160 155 141 126 73 55 50 47 39 67 179 191 177 169 158 142 139 122 113 111 94 82 58 38 14
191 190 195 185 176 185 195 197 199 206 198 199 190 185 191 193 181 170 161 158 132 138 124 82 60 40 38 49 94 126 148 129 123 122 113 109 105 90 73 52 34 30 24
193 195 192 188 181 189 196 201 204 203 202 193 179 171 159 176 164 159 164 158 144 138 141 147 115 64 42 45 77 110 120 119 118 121 113 110 103 111 85 55 35 22 7
195 194 194 192 193 195 200 201 203 201 201 196 164 145 108 155 169 163 160 149 144 139 131 114 94 77 62 46 40 76 118 120 116 105 98 109 95 81 74 45 27 11 353
197 195 196 196 195 199 204 202 203 204 210 191 196 199 180 185 185 178 168 158 146 122 97 77 92 82 66 62 57 55 60 80 91 92 83 82 74 62 51 30 10 354 343
198 198 199 199 197 204 206 208 205 210 206 200 230 211 192 226 144 155 162 134 134 112 95 86 79 78 78 74 63 56 56 63 63 64 70 67 56 51 33 13 356 340 332
203 205 207 206 207 204 212 211 213 212 220 204 215 248 261 81 202 170 157 140 133 133 125 105 84 71 73 75 76 78 78 74 75 68 57 58 52 36 19 359 341 335 329
207 206 207 203 207 206 213 215 212 208 210 218 210 194 225 236 248 215 174 165 122 138 116 109 95 94 80 91 91 98 102 95 78 72 67 49 29 1 344 338 330 329 333
202 208 208 207 208 209 209 210 213 210 209 214 216 222 205 198 214 194 157 141 172 158 141 126 132 126 105 97 85 48 102 110 109 86 30 351 337 330 341 335 330 335 333
200 206 205 207 209 213 214 211 211 214 213 211 211 223 230 240 231 207 150 137 139 152 160 153 143 138 150 143 124 88 73 140 124 157 305 323 317 304 319 323 327 321 315
207 205 203 205 208 213 217 216 220 218 215 209 196 189 133 53 263 228 167 155 147 158 168 137 148 163 162 159 145 156 173 202 246 325 298 303 297 309 325 314 308 316 319
110 105 99 129 96 114 154 146 136 91 69 82 91 104 103 57 38 48 355 141 157 156 179 166 157 172 163 168 161 198 200 106 329 311 310 307 296 297 306 309 308 311 318
77 66 105 79 95 68 45 109 77 96 96 60 76 94 82 62 70 31 359 73 46 70 129 131 140 155 178 162 146 219 212 245 229 301 298 283 281 290 301 307 302 307 316
69 73 60 86 74 75 67 55 90 88 84 81 70 87 85 74 50 32 14 56 65 61 109 108 92 154 167 180 183 219 238 267 257 250 300 284 288 293 291 292 289 312 324
59 66 59 62 66 65 75 76 79 74 80 86 81 77 77 65 53 49 39 54 49 32 107 130 141 152 195 181 265 279 250 258 284 304 288 270 280 291 290 278 283 307 321
50 53 63 56 66 61 68 70 78 93 85 71 76 72 67 60 53 56 66 72 62 55 62 127 122 129 102 139 202 245 286 288 269 292 278 277 281 294 286 263 281 303 316
55 50 61 60 57 68 75 87 88 82 79 75 60 62 53 54 60 69 70 72 75 74 73 89 87 104 71 78 31 313 272 251 296 293 274 264 283 281 280 258 278 295 305
55 51 65 70 66 70 76 73 81 82 84 84 73 66 61 63 62 57 70 64 74 88 87 89 88 95 94 91 293 359 292 313 296 303 308 296 299 295 269 247 270 281 303
61 61 59 64 70 72 83 89 95 97 96 95 95 89 72 59 69 70 69 65 56 50 66 64 64 100 125 205 205 345 324 337 313 68 328 297 297 289 290 261 273 300 300
70 65 64 66 71 75 85 86 85 82 86 85 83 80 78 67 67 74 67 63 55 53 49 44 103 58 66 57 344 317 308 288 281 329 325 290 310 286 276 279 292 298 282
61 71 78 80 77 70 77 82 82 85 82 78 79 80 83 70 59 66 74 73 63 55 47 46 57 55 35 56 342 332 324 295 283 270 235 275 349 288 300 289 292 276 271
78 70 61 70 74 73 79 81 82 84 84 80 68 65 79 78 60 56 76 83 79 61 49 47 43 33 5 285 280 258 277 306 290 240 194 275 311 297 298 292 281 276 293
72 73 74 61 55 79 77 81 83 95 98 95 87 82 75 76 73 58 65 59 77 49 22 1 347 329 311 294 278 256 277 271 290 284 128 276 313 335 303 301 291 307 304